Time,TemperatureF,DewpointF,PressureIn,WindDirection,WindDirectionDegrees,WindSpeedMPH,WindSpeedGustMPH,Humidity,HourlyPrecipIn,Conditions,Clouds,dailyrainin,SoftwareType,DateUTC
2013-12-08 00:12:00,36.0,34.0,30.28,NNE,20,1.0,4.0,92,0.01,,,0.01,,2013-12-08 06:12:00,
2013-12-08 00:23:00,36.0,34.0,30.26,NNE,19,1.0,5.0,92,0.01,,,0.01,,2013-12-08 06:23:00,
2013-12-08 00:32:00,36.0,34.0,30.26,NNE,19,1.0,5.0,92,0.01,,,0.01,,2013-12-08 06:32:00,
2013-12-08 00:42:00,36.0,34.0,30.26,NNE,19,1.0,5.0,92,0.01,,,0.01,,2013-12-08 06:42:00,
2013-12-08 00:52:00,36.0,34.0,30.26,NNE,19,1.0,5.0,92,0.01,,,0.01,,2013-12-08 06:52:00,
2013-12-08 01:12:00,36.0,34.0,30.24,NNE,23,1.0,5.0,92,0.00,,,0.01,,2013-12-08 07:12:00,
2013-12-08 01:22:00,36.0,34.0,30.22,NNE,27,1.0,5.0,92,0.00,,,0.01,,2013-12-08 07:22:00,
2013-12-08 01:42:00,36.0,34.0,30.22,NNE,27,1.0,4.0,92,0.00,,,0.01,,2013-12-08 07:42:00,
2013-12-08 01:53:00,36.0,34.0,30.22,NNE,27,1.0,3.0,92,0.00,,,0.01,,2013-12-08 07:53:00,
2013-12-08 02:22:00,36.0,34.0,30.23,North,0,1.0,4.0,92,0.00,,,0.01,,2013-12-08 08:22:00,
2013-12-08 02:42:00,36.0,34.0,30.23,NE,48,1.0,4.0,92,0.00,,,0.01,,2013-12-08 08:42:00,
2013-12-08 02:52:00,36.0,34.0,30.23,NE,45,1.0,6.0,92,0.00,,,0.01,,2013-12-08 08:52:00,
2013-12-08 03:11:00,36.0,34.0,30.21,NNE,17,2.0,5.0,91,0.00,,,0.01,,2013-12-08 09:11:00,
2013-12-08 03:22:00,36.0,34.0,30.22,NNE,17,1.0,3.0,91,0.00,,,0.01,,2013-12-08 09:22:00,
2013-12-08 03:43:00,36.0,34.0,30.20,NNE,17,1.0,3.0,92,0.00,,,0.01,,2013-12-08 09:43:00,
2013-12-08 03:53:00,36.0,34.0,30.19,NNE,17,1.0,4.0,92,0.00,,,0.01,,2013-12-08 09:53:00,
2013-12-08 04:23:00,36.0,34.0,30.19,NNW,344,1.0,5.0,92,0.00,,,0.01,,2013-12-08 10:23:00,
2013-12-08 04:33:00,36.0,34.0,30.19,NNW,344,1.0,5.0,92,0.00,,,0.01,,2013-12-08 10:33:00,
2013-12-08 04:43:00,36.0,34.0,30.19,NNW,344,1.0,5.0,92,0.00,,,0.01,,2013-12-08 10:43:00,
2013-12-08 04:53:00,37.0,35.0,30.18,North,5,1.0,5.0,92,0.00,,,0.01,,2013-12-08 10:53:00,
2013-12-08 05:02:00,37.0,35.0,30.18,North,5,1.0,5.0,92,0.00,,,0.01,,2013-12-08 11:02:00,
2013-12-08 05:22:00,37.0,35.0,30.18,North,5,1.0,3.0,92,0.00,,,0.01,,2013-12-08 11:22:00,
2013-12-08 05:33:00,37.0,35.0,30.18,North,5,1.0,3.0,92,0.00,,,0.01,,2013-12-08 11:33:00,
2013-12-08 05:43:00,37.0,35.0,30.18,North,5,1.0,3.0,92,0.00,,,0.01,,2013-12-08 11:43:00,
2013-12-08 05:52:00,37.0,35.0,30.18,North,5,1.0,4.0,91,0.00,,,0.01,,2013-12-08 11:52:00,
2013-12-08 06:12:00,37.0,35.0,30.18,North,5,0.0,3.0,91,0.00,,,0.01,,2013-12-08 12:12:00,
2013-12-08 06:22:00,37.0,35.0,30.18,North,5,0.0,1.0,92,0.00,,,0.01,,2013-12-08 12:22:00,
2013-12-08 06:32:00,37.0,35.0,30.18,North,5,0.0,1.0,92,0.00,,,0.01,,2013-12-08 12:32:00,
2013-12-08 06:42:00,37.0,35.0,30.18,North,5,0.0,1.0,92,0.00,,,0.01,,2013-12-08 12:42:00,
2013-12-08 06:52:00,38.0,36.0,30.18,North,5,1.0,3.0,91,0.00,,,0.01,,2013-12-08 12:52:00,
2013-12-08 07:11:00,38.0,36.0,30.18,North,5,1.0,3.0,91,0.00,,,0.01,,2013-12-08 13:11:00,
2013-12-08 07:22:00,38.0,36.0,30.17,North,5,0.0,1.0,91,0.00,,,0.01,,2013-12-08 13:22:00,
2013-12-08 07:32:00,38.0,36.0,30.17,North,5,0.0,1.0,91,0.00,,,0.01,,2013-12-08 13:32:00,
2013-12-08 07:42:00,38.0,36.0,30.17,North,5,0.0,1.0,91,0.00,,,0.01,,2013-12-08 13:42:00,
2013-12-08 07:52:00,38.0,36.0,30.19,North,5,0.0,0.0,91,0.00,,,0.01,,2013-12-08 13:52:00,
2013-12-08 08:00:00,39.0,36.0,30.19,North,5,1.0,3.0,90,0.00,,,0.01,,2013-12-08 14:00:00,
2013-12-08 08:12:00,38.0,36.0,30.19,North,5,1.0,1.0,91,0.00,,,0.01,,2013-12-08 14:12:00,
2013-12-08 08:22:00,39.0,36.0,30.19,North,5,1.0,3.0,90,0.00,,,0.01,,2013-12-08 14:22:00,
2013-12-08 08:32:00,39.0,36.0,30.19,North,5,1.0,3.0,90,0.00,,,0.01,,2013-12-08 14:32:00,
2013-12-08 08:42:00,39.0,36.0,30.19,North,5,1.0,3.0,90,0.00,,,0.01,,2013-12-08 14:42:00,
2013-12-08 08:52:00,39.0,36.0,30.19,North,5,1.0,3.0,90,0.00,,,0.01,,2013-12-08 14:52:00,
2013-12-08 09:22:00,39.0,37.0,30.18,NNE,13,1.0,2.0,91,0.00,,,0.01,,2013-12-08 15:22:00,
2013-12-08 09:54:00,39.0,37.0,30.19,NNW,333,0.0,3.0,91,0.00,,,0.01,,2013-12-08 15:54:00,
2013-12-08 10:13:00,39.0,37.0,30.18,NE,43,1.0,3.0,91,0.00,,,0.01,,2013-12-08 16:13:00,
2013-12-08 10:23:00,39.0,37.0,30.18,NE,53,1.0,3.0,91,0.00,,,0.01,,2013-12-08 16:23:00,
2013-12-08 10:33:00,39.0,37.0,30.18,NE,53,1.0,3.0,91,0.00,,,0.01,,2013-12-08 16:33:00,
2013-12-08 10:43:00,39.0,37.0,30.18,NE,53,1.0,3.0,91,0.00,,,0.01,,2013-12-08 16:43:00,
2013-12-08 10:53:00,39.0,37.0,30.17,ENE,63,2.0,4.0,91,0.00,,,0.01,,2013-12-08 16:53:00,
2013-12-08 11:12:00,40.0,37.0,30.18,NNE,22,1.0,5.0,90,0.00,,,0.01,,2013-12-08 17:12:00,
2013-12-08 11:22:00,41.0,38.0,30.18,NE,42,1.0,3.0,89,0.00,,,0.01,,2013-12-08 17:22:00,
2013-12-08 11:42:00,41.0,38.0,30.18,NE,42,1.0,3.0,88,0.00,,,0.01,,2013-12-08 17:42:00,
2013-12-08 11:52:00,42.0,38.0,30.17,ENE,69,1.0,4.0,87,0.00,,,0.01,,2013-12-08 17:52:00,
2013-12-08 12:02:00,42.0,38.0,30.17,ENE,69,1.0,4.0,87,0.00,,,0.01,,2013-12-08 18:02:00,
2013-12-08 12:22:00,42.0,38.0,30.15,North,10,2.0,5.0,86,0.00,,,0.01,,2013-12-08 18:22:00,
2013-12-08 12:32:00,42.0,38.0,30.15,North,10,2.0,5.0,86,0.00,,,0.01,,2013-12-08 18:32:00,
2013-12-08 12:42:00,42.0,38.0,30.15,North,10,2.0,5.0,86,0.00,,,0.01,,2013-12-08 18:42:00,
2013-12-08 12:52:00,42.0,38.0,30.14,NNE,15,2.0,5.0,86,0.00,,,0.01,,2013-12-08 18:52:00,
2013-12-08 13:12:00,43.0,39.0,30.11,NNE,15,2.0,5.0,86,0.00,,,0.01,,2013-12-08 19:12:00,
2013-12-08 13:22:00,43.0,39.0,30.11,NNE,15,2.0,5.0,86,0.00,,,0.01,,2013-12-08 19:22:00,
2013-12-08 13:42:00,44.0,39.0,30.07,NE,40,2.0,6.0,84,0.00,,,0.01,,2013-12-08 19:42:00,
2013-12-08 13:52:00,45.0,40.0,30.08,North,5,1.0,6.0,83,0.00,,,0.01,,2013-12-08 19:52:00,
2013-12-08 14:02:00,45.0,40.0,30.08,North,5,1.0,6.0,83,0.00,,,0.01,,2013-12-08 20:02:00,
2013-12-08 14:11:00,45.0,40.0,30.08,North,5,1.0,6.0,83,0.00,,,0.01,,2013-12-08 20:11:00,
2013-12-08 14:22:00,46.0,41.0,30.06,North,353,2.0,4.0,83,0.00,,,0.01,,2013-12-08 20:22:00,
2013-12-08 14:42:00,47.0,41.0,30.06,North,0,2.0,3.0,81,0.00,,,0.01,,2013-12-08 20:42:00,
2013-12-08 14:52:00,47.0,41.0,30.06,North,0,2.0,3.0,81,0.00,,,0.01,,2013-12-08 20:52:00,
2013-12-08 15:02:00,47.0,41.0,30.06,North,0,2.0,3.0,81,0.00,,,0.01,,2013-12-08 21:02:00,
2013-12-08 15:22:00,47.0,41.0,30.07,NE,45,2.0,4.0,81,0.00,,,0.01,,2013-12-08 21:22:00,
2013-12-08 15:33:00,47.0,41.0,30.07,NE,45,2.0,4.0,81,0.00,,,0.01,,2013-12-08 21:33:00,
2013-12-08 15:53:00,46.0,41.0,30.07,NNE,15,0.0,5.0,82,0.00,,,0.01,,2013-12-08 21:53:00,
2013-12-08 16:23:00,46.0,41.0,30.06,NNW,331,1.0,4.0,83,0.00,,,0.01,,2013-12-08 22:23:00,
2013-12-08 16:43:00,46.0,41.0,30.06,NNE,16,1.0,4.0,83,0.00,,,0.01,,2013-12-08 22:43:00,
2013-12-08 16:53:00,46.0,41.0,30.06,NNE,16,1.0,4.0,83,0.00,,,0.01,,2013-12-08 22:53:00,
2013-12-08 17:03:00,46.0,41.0,30.06,NNE,16,1.0,4.0,83,0.00,,,0.01,,2013-12-08 23:03:00,
2013-12-08 17:22:00,46.0,41.0,30.06,North,5,2.0,3.0,84,0.00,,,0.01,,2013-12-08 23:22:00,
2013-12-08 17:42:00,46.0,41.0,30.06,North,5,1.0,3.0,84,0.00,,,0.01,,2013-12-08 23:42:00,
2013-12-08 17:53:00,46.0,41.0,30.06,North,5,1.0,2.0,84,0.00,,,0.01,,2013-12-08 23:53:00,
2013-12-08 18:11:00,46.0,41.0,30.06,North,5,1.0,2.0,84,0.00,,,0.01,,2013-12-09 00:11:00,
2013-12-08 18:22:00,46.0,42.0,30.07,North,5,1.0,3.0,85,0.00,,,0.01,,2013-12-09 00:22:00,
2013-12-08 18:32:00,46.0,42.0,30.07,North,5,1.0,3.0,85,0.00,,,0.01,,2013-12-09 00:32:00,
2013-12-08 18:42:00,46.0,42.0,30.07,North,5,1.0,3.0,85,0.00,,,0.01,,2013-12-09 00:42:00,
2013-12-08 18:52:00,46.0,42.0,30.08,North,5,1.0,3.0,85,0.00,,,0.01,,2013-12-09 00:52:00,
2013-12-08 19:02:00,46.0,42.0,30.08,North,5,1.0,3.0,85,0.00,,,0.01,,2013-12-09 01:02:00,
2013-12-08 19:11:00,46.0,42.0,30.08,North,5,1.0,3.0,85,0.00,,,0.01,,2013-12-09 01:11:00,
2013-12-08 19:22:00,46.0,41.0,30.09,North,5,1.0,3.0,84,0.00,,,0.01,,2013-12-09 01:22:00,
2013-12-08 19:42:00,46.0,42.0,30.09,North,5,1.0,2.0,85,0.00,,,0.01,,2013-12-09 01:42:00,
2013-12-08 19:52:00,46.0,42.0,30.10,North,5,1.0,2.0,85,0.00,,,0.01,,2013-12-09 01:52:00,
2013-12-08 20:11:00,46.0,42.0,30.10,North,5,1.0,2.0,85,0.00,,,0.01,,2013-12-09 02:11:00,
2013-12-08 20:21:00,46.0,42.0,30.10,North,5,1.0,2.0,85,0.00,,,0.01,,2013-12-09 02:21:00,
2013-12-08 20:42:00,46.0,42.0,30.11,North,5,1.0,2.0,85,0.00,,,0.01,,2013-12-09 02:42:00,
2013-12-08 20:53:00,46.0,42.0,30.11,North,5,1.0,2.0,85,0.00,,,0.01,,2013-12-09 02:53:00,
2013-12-08 21:11:00,46.0,42.0,30.11,North,5,1.0,4.0,85,0.00,,,0.01,,2013-12-09 03:11:00,
2013-12-08 21:22:00,46.0,42.0,30.11,North,5,1.0,4.0,85,0.00,,,0.01,,2013-12-09 03:22:00,
2013-12-08 21:43:00,46.0,42.0,30.11,North,5,2.0,3.0,86,0.00,,,0.01,,2013-12-09 03:43:00,
2013-12-08 21:53:00,46.0,42.0,30.11,North,5,1.0,3.0,86,0.00,,,0.01,,2013-12-09 03:53:00,
2013-12-08 22:13:00,46.0,42.0,30.11,North,5,1.0,4.0,87,0.00,,,0.01,,2013-12-09 04:13:00,
2013-12-08 22:23:00,46.0,42.0,30.11,North,5,1.0,4.0,87,0.00,,,0.01,,2013-12-09 04:23:00,
2013-12-08 22:43:00,46.0,43.0,30.11,North,5,1.0,4.0,88,0.00,,,0.01,,2013-12-09 04:43:00,
2013-12-08 22:53:00,45.0,42.0,30.12,North,5,0.0,3.0,90,0.00,,,0.01,,2013-12-09 04:53:00,
2013-12-08 23:23:00,45.0,43.0,30.13,North,5,1.0,2.0,91,0.00,,,0.01,,2013-12-09 05:23:00,
2013-12-08 23:42:00,45.0,43.0,30.12,North,5,1.0,2.0,91,0.00,,,0.01,,2013-12-09 05:42:00,
2013-12-08 23:53:00,45.0,43.0,30.12,North,5,1.0,2.0,91,0.00,,,0.00,,2013-12-09 05:53:00,